VK4CWL-13 Weather Reports


Display with metric or nautical units.
time (UTC)temp
F
wind
direction
speed
MPH
gust
MPH
rain 1hr
in
rain 24hr
in
rain mn
in
humidity
%
barometer
mb
20260906044351 93 157 9.0 9.0 0.00 0.00 0.00 20 1014.8
20260906044059 93 0 0.0 4.0 0.00 0.00 0.00 20 1014.8
20260906043556 93 315 6.0 8.0 0.00 0.00 0.00 19 1014.6
20260906043054 93 270 5.0 11.0 0.00 0.00 0.00 20 1014.9
20260906042552 93 270 3.0 19.0 0.00 0.00 0.00 20 1014.8
20260906042450 93 258 19.0 19.0 0.00 0.00 0.00 20 1014.8
20260906042247 93 225 8.0 13.0 0.00 0.00 0.00 21 1015.0
20260906041745 92 270 6.0 15.0 0.00 0.00 0.00 20 1014.9
20260906041523 93 270 15.0 15.0 0.00 0.00 0.00 20 1014.9
20260906041112 92 247 6.0 10.0 0.00 0.00 0.00 21 1015.0
20260906040611 92 247 7.0 10.0 0.00 0.00 0.00 21 1015.1
20260906035914 92 337 1.0 7.0 0.00 0.00 0.00 21 1015.2
20260906035415 92 281 3.0 13.0 0.00 0.00 0.00 20 1015.2
20260906035201 92 292 13.0 13.0 0.00 0.00 0.00 21 1015.3
20260906034849 92 135 3.0 10.0 0.00 0.00 0.00 21 1015.2
20260906034345 92 225 2.0 7.0 0.00 0.00 0.00 21 1015.4
20260906033844 91 247 4.0 7.0 0.00 0.00 0.00 21 1015.5
20260906033340 91 0 1.0 5.0 0.00 0.00 0.00 21 1015.6
20260906032841 91 337 2.0 3.0 0.00 0.00 0.00 22 1015.7
20260906032337 90 157 6.0 8.0 0.00 0.00 0.00 21 1015.7
20260906031835 90 270 4.0 4.0 0.00 0.00 0.00 23 1015.9
20260906030831 90 247 1.0 9.0 0.00 0.00 0.00 23 1016.0
20260906030328 90 337 4.0 6.0 0.00 0.00 0.00 23 1015.9
20260906025827 90 213 6.0 7.0 0.00 0.00 0.00 23 1016.0
20260906025324 90 292 3.0 6.0 0.00 0.00 0.00 24 1016.2
20260906024821 89 270 4.0 7.0 0.00 0.00 0.00 24 1016.2
20260906024317 89 303 5.0 7.0 0.00 0.00 0.00 24 1016.4
20260906023815 89 315 4.0 7.0 0.00 0.00 0.00 25 1016.4
20260906023314 88 303 3.0 6.0 0.00 0.00 0.00 27 1016.6
20260906022812 88 303 3.0 5.0 0.00 0.00 0.00 27 1016.8
20260906022310 88 157 1.0 4.0 0.00 0.00 0.00 28 1016.9
20260906021809 87 123 1.0 5.0 0.00 0.00 0.00 28 1017.1
20260906021305 87 45 5.0 9.0 0.00 0.00 0.00 27 1017.1
20260906020805 87 45 4.0 8.0 0.00 0.00 0.00 28 1017.2
20260906020303 87 0 4.0 7.0 0.00 0.00 0.00 28 1017.3
20260906015759 87 22 4.0 8.0 0.00 0.00 0.00 27 1017.4
20260906015257 87 67 5.0 9.0 0.00 0.00 0.00 27 1017.5
20260906014755 86 202 1.0 5.0 0.00 0.00 0.00 29 1017.7
20260906014251 86 0 2.0 7.0 0.00 0.00 0.00 29 1017.9
20260906013749 86 90 1.0 5.0 0.00 0.00 0.00 30 1017.9
20260906013247 86 315 1.0 8.0 0.00 0.00 0.00 30 1018.0
20260906012746 85 303 2.0 9.0 0.00 0.00 0.00 30 1018.1
20260906012241 85 0 7.0 10.0 0.00 0.00 0.00 30 1018.2
20260906011740 85 45 7.0 8.0 0.00 0.00 0.00 29 1018.2
20260906011240 85 22 6.0 9.0 0.00 0.00 0.00 31 1018.4
20260906010735 84 270 2.0 5.0 0.00 0.00 0.00 33 1018.5
20260906010231 84 0 6.0 9.0 0.00 0.00 0.00 31 1018.5
20260906005731 84 0 3.0 9.0 0.00 0.00 0.00 32 1018.6
20260906005228 84 281 5.0 6.0 0.00 0.00 0.00 34 1018.7
20260906004725 83 0 4.0 6.0 0.00 0.00 0.00 34 1018.8
20260906004224 83 270 3.0 6.0 0.00 0.00 0.00 37 1019.0
20260906003722 82 45 6.0 6.0 0.00 0.00 0.00 34 1019.0
20260906003218 82 337 8.0 8.0 0.00 0.00 0.00 36 1019.1
20260906002717 81 0 6.0 6.0 0.00 0.00 0.00 38 1019.3
20260906002213 80 0 4.0 6.0 0.00 0.00 0.00 40 1019.4
20260906001711 79 0 1.0 5.0 0.00 0.00 0.00 43 1019.6
20260906001209 79 180 0.0 5.0 0.00 0.00 0.00 45 1019.7
20260906000736 78 11 8.0 9.0 0.00 0.00 0.00 45 1019.9
20260906000234 78 45 4.0 7.0 0.00 0.00 0.00 46 1019.9
20260905235732 78 45 4.0 5.0 0.00 0.00 0.00 47 1019.9
20260905235230 77 45 5.0 6.0 0.00 0.00 0.00 48 1019.9
20260905234728 76 0 8.0 8.0 0.00 0.00 0.00 48 1020.0
20260905234225 76 0 3.0 10.0 0.00 0.00 0.00 49 1020.1
20260905233723 75 45 3.0 6.0 0.00 0.00 0.00 51 1020.2
20260905233222 74 0 1.0 7.0 0.00 0.00 0.00 52 1020.2
20260905232718 74 33 4.0 7.0 0.00 0.00 0.00 52 1020.2
20260905232217 73 67 4.0 6.0 0.00 0.00 0.00 53 1020.3
20260905231713 73 0 3.0 5.0 0.00 0.00 0.00 54 1020.3
20260905231211 72 247 3.0 7.0 0.00 0.00 0.00 55 1020.3
20260905230709 71 45 7.0 7.0 0.00 0.00 0.00 56 1020.3
20260905230207 70 315 1.0 6.0 0.00 0.00 0.00 57 1020.4
20260905225705 70 0 6.0 8.0 0.00 0.00 0.00 57 1020.3
20260905225203 70 0 4.0 8.0 0.00 0.00 0.00 58 1020.4
20260905224700 69 337 3.0 6.0 0.00 0.00 0.00 59 1020.5
20260905224158 69 22 5.0 7.0 0.00 0.00 0.00 59 1020.5
20260905223656 69 0 5.0 8.0 0.00 0.00 0.00 60 1020.7
20260905223153 68 337 2.0 7.0 0.00 0.00 0.00 61 1020.8
20260905222651 68 0 1.0 3.0 0.00 0.00 0.00 62 1020.7
20260905222148 67 225 2.0 4.0 0.00 0.00 0.00 64 1020.6
20260905221647 66 67 4.0 4.0 0.00 0.00 0.00 65 1020.7
20260905221147 65 0 2.0 3.0 0.00 0.00 0.00 66 1020.7
20260905220642 64 45 1.0 3.0 0.00 0.00 0.00 67 1020.6
20260905220144 64 45 1.0 3.0 0.00 0.00 0.00 69 1020.7
20260905215637 63 45 3.0 4.0 0.00 0.00 0.00 70 1020.7
20260905215135 62 45 2.0 4.0 0.00 0.00 0.00 71 1020.5
20260905214634 61 0 1.0 4.0 0.00 0.00 0.00 72 1020.4
20260905214130 60 45 3.0 4.0 0.00 0.00 0.00 73 1020.3
20260905213628 60 45 3.0 4.0 0.00 0.00 0.00 74 1020.3
20260905213125 59 0 3.0 4.0 0.00 0.00 0.00 74 1020.3
20260905212625 58 11 2.0 3.0 0.00 0.00 0.00 73 1020.3
20260905212121 58 45 1.0 3.0 0.00 0.00 0.00 75 1020.4
20260905211620 57 22 2.0 3.0 0.00 0.00 0.00 75 1020.2
20260905211117 57 45 1.0 1.0 0.00 0.00 0.00 72 1020.1
20260905210616 56 78 1.0 1.0 0.00 0.00 0.00 72 1020.2
20260905210115 55 78 0.0 1.0 0.00 0.00 0.00 72 1020.1
20260905205612 55 90 0.0 0.0 0.00 0.00 0.00 72 1020.1
20260905205108 54 90 0.0 0.0 0.00 0.00 0.00 72 1020.2
20260905204605 53 135 0.0 0.0 0.00 0.00 0.00 73 1020.1
20260905204108 53 135 0.0 0.0 0.00 0.00 0.00 71 1020.0
20260905203602 53 135 0.0 1.0 0.00 0.00 0.00 71 1020.0
20260905203101 52 78 1.0 1.0 0.00 0.00 0.00 72 1020.0
20260905202556 52 135 0.0 0.0 0.00 0.00 0.00 72 1019.9
20260905202104 52 135 0.0 0.0 0.00 0.00 0.00 70 1019.7
20260905201552 52 225 0.0 0.0 0.00 0.00 0.00 70 1019.6
20260905201049 52 315 0.0 0.0 0.00 0.00 0.00 69 1019.5
20260905200546 53 315 0.0 0.0 0.00 0.00 0.00 69 1019.4
20260905200045 53 180 0.0 0.0 0.00 0.00 0.00 69 1019.4
20260905195543 53 180 0.0 0.0 0.00 0.00 0.00 69 1019.4
20260905195044 53 315 0.0 1.0 0.00 0.00 0.00 68 1019.2
20260905194538 54 315 0.0 0.0 0.00 0.00 0.00 68 1019.2
20260905194035 54 315 0.0 0.0 0.00 0.00 0.00 68 1019.2
20260905193533 54 315 0.0 0.0 0.00 0.00 0.00 68 1019.0
20260905193031 55 315 0.0 0.0 0.00 0.00 0.00 68 1018.9
20260905192529 55 225 0.0 0.0 0.00 0.00 0.00 68 1019.0
20260905192028 55 315 0.0 0.0 0.00 0.00 0.00 69 1019.0
20260905191523 56 270 0.0 1.0 0.00 0.00 0.00 71 1019.0
20260905191021 56 225 1.0 2.0 0.00 0.00 0.00 72 1019.0
20260905190519 55 157 2.0 2.0 0.00 0.00 0.00 71 1019.0
20260905190017 56 180 1.0 2.0 0.00 0.00 0.00 70 1019.0
20260905185517 55 180 1.0 3.0 0.00 0.00 0.00 72 1019.0
20260905185014 55 180 3.0 3.0 0.00 0.00 0.00 73 1018.9
20260905184510 55 180 3.0 3.0 0.00 0.00 0.00 72 1018.9
20260905184008 55 180 2.0 3.0 0.00 0.00 0.00 68 1018.7
20260905183506 55 135 2.0 3.0 0.00 0.00 0.00 68 1018.8
20260905183003 55 180 1.0 2.0 0.00 0.00 0.00 68 1018.8
20260905182500 56 225 1.0 2.0 0.00 0.00 0.00 66 1018.7
20260905181456 56 225 1.0 1.0 0.00 0.00 0.00 66 1018.7
20260905180957 56 270 1.0 3.0 0.00 0.00 0.00 65 1018.6
20260905180452 56 270 1.0 2.0 0.00 0.00 0.00 65 1018.8
20260905175950 56 157 2.0 3.0 0.00 0.00 0.00 64 1018.5
20260905175449 56 225 1.0 1.0 0.00 0.00 0.00 64 1018.6
20260905174945 57 225 1.0 2.0 0.00 0.00 0.00 65 1018.6
20260905174445 56 213 1.0 3.0 0.00 0.00 0.00 66 1018.3
20260905173940 56 180 2.0 2.0 0.00 0.00 0.00 64 1018.3
20260905173438 57 180 2.0 2.0 0.00 0.00 0.00 61 1018.1
20260905172935 57 180 1.0 1.0 0.00 0.00 0.00 63 1018.1
20260905172433 57 157 1.0 3.0 0.00 0.00 0.00 64 1018.2
20260905171931 57 180 2.0 3.0 0.00 0.00 0.00 64 1018.3
20260905171429 57 180 1.0 2.0 0.00 0.00 0.00 62 1018.1
20260905170927 57 225 0.0 0.0 0.00 0.00 0.00 59 1018.0
20260905170424 57 225 0.0 0.0 0.00 0.00 0.00 59 1018.0
20260905165922 58 180 1.0 1.0 0.00 0.00 0.00 60 1018.0
20260905165420 58 180 1.0 1.0 0.00 0.00 0.00 60 1018.1
20260905164917 58 180 0.0 1.0 0.00 0.00 0.00 59 1018.2
20260905164423 58 180 0.0 1.0 0.00 0.00 0.00 60 1018.2
20260905163912 58 180 1.0 1.0 0.00 0.00 0.00 60 1018.2
20260905163410 58 135 1.0 1.0 0.00 0.00 0.00 59 1018.2
20260905162908 58 180 1.0 2.0 0.00 0.00 0.00 59 1018.1
20260905162406 58 191 1.0 3.0 0.00 0.00 0.00 58 1018.1
20260905161911 59 168 2.0 2.0 0.00 0.00 0.00 56 1018.0
20260905161401 59 135 0.0 0.0 0.00 0.00 0.00 57 1018.2
20260905160859 60 225 0.0 1.0 0.00 0.00 0.00 56 1018.2
20260905160357 60 180 0.0 1.0 0.00 0.00 0.00 55 1018.2
20260905155854 60 180 1.0 2.0 0.00 0.00 0.00 55 1018.3
20260905155352 61 168 1.0 1.0 0.00 0.00 0.00 54 1018.2
20260905154850 61 225 0.0 1.0 0.00 0.00 0.00 54 1018.3
20260905154347 61 225 0.0 3.0 0.00 0.00 0.00 54 1018.3
20260905153845 61 247 2.0 3.0 0.00 0.00 0.00 55 1018.2
20260905153343 61 270 3.0 3.0 0.00 0.00 0.00 54 1018.2
20260905152842 61 225 2.0 2.0 0.00 0.00 0.00 54 1018.1
20260905152339 62 225 0.0 0.0 0.00 0.00 0.00 53 1018.1
20260905151836 62 315 0.0 0.0 0.00 0.00 0.00 53 1018.2
20260905151334 62 315 0.0 0.0 0.00 0.00 0.00 53 1018.1
20260905150831 62 0 0.0 0.0 0.00 0.00 0.00 52 1018.1
20260905150333 62 90 0.0 0.0 0.00 0.00 0.00 51 1018.2
20260905145829 62 45 1.0 3.0 0.00 0.00 0.00 52 1018.3
20260905145326 62 22 1.0 3.0 0.00 0.00 0.00 52 1018.3
20260905144822 63 315 1.0 3.0 0.00 0.00 0.00 51 1018.3
20260905144320 63 0 2.0 2.0 0.00 0.00 0.00 50 1018.3
20260905143818 63 0 1.0 1.0 0.00 0.00 0.00 49 1018.3
20260905143316 63 11 0.0 1.0 0.00 0.00 0.00 49 1018.4
20260905142813 63 45 2.0 2.0 0.00 0.00 0.00 49 1018.6
20260905142311 64 45 1.0 2.0 0.00 0.00 0.00 48 1018.5
20260905141809 64 45 1.0 2.0 0.00 0.00 0.00 48 1018.5
20260905141308 64 45 1.0 1.0 0.00 0.00 0.00 47 1018.6
20260905140804 64 0 1.0 2.0 0.00 0.00 0.00 47 1018.7
20260905140302 65 45 1.0 2.0 0.00 0.00 0.00 47 1018.7
20260905135759 65 45 1.0 2.0 0.00 0.00 0.00 46 1018.7
20260905134755 65 45 2.0 2.0 0.00 0.00 0.00 46 1018.7
20260905134253 65 22 2.0 3.0 0.00 0.00 0.00 46 1018.7
20260905133751 65 45 2.0 2.0 0.00 0.00 0.00 45 1018.8
20260905132746 66 0 0.0 1.0 0.00 0.00 0.00 44 1018.8
20260905132243 66 0 1.0 2.0 0.00 0.00 0.00 44 1018.8
20260905131741 66 90 0.0 2.0 0.00 0.00 0.00 44 1018.8
20260905131239 66 90 1.0 1.0 0.00 0.00 0.00 44 1018.8
20260905130736 67 45 0.0 2.0 0.00 0.00 0.00 43 1018.9
20260905130236 67 11 1.0 3.0 0.00 0.00 0.00 43 1018.9
20260905125733 67 135 1.0 3.0 0.00 0.00 0.00 43 1018.8
20260905125230 68 90 3.0 3.0 0.00 0.00 0.00 43 1018.8
20260905124728 68 0 1.0 2.0 0.00 0.00 0.00 43 1018.8
20260905124225 68 0 2.0 3.0 0.00 0.00 0.00 43 1018.8
20260905123723 68 0 4.0 4.0 0.00 0.00 0.00 44 1018.8
20260905123220 68 90 3.0 3.0 0.00 0.00 0.00 42 1018.8
20260905122213 68 33 2.0 5.0 0.00 0.00 0.00 42 1018.8
20260905121710 69 67 3.0 4.0 0.00 0.00 0.00 41 1018.8
20260905121208 69 135 5.0 5.0 0.00 0.00 0.00 40 1018.8
20260905120706 70 315 3.0 5.0 0.00 0.00 0.00 41 1018.7
20260905120204 70 337 3.0 5.0 0.00 0.00 0.00 41 1018.6
20260905115702 70 337 3.0 4.0 0.00 0.00 0.00 40 1018.6
20260905115200 70 337 3.0 3.0 0.00 0.00 0.00 40 1018.5
20260905114657 70 315 1.0 2.0 0.00 0.00 0.00 40 1018.6
20260905114154 70 0 0.0 1.0 0.00 0.00 0.00 39 1018.5
20260905113652 70 45 0.0 1.0 0.00 0.00 0.00 39 1018.7
20260905113150 70 45 0.0 2.0 0.00 0.00 0.00 39 1018.6
20260905112648 70 45 1.0 1.0 0.00 0.00 0.00 39 1018.7
20260905112145 70 0 1.0 2.0 0.00 0.00 0.00 39 1018.5
20260905111643 71 315 1.0 1.0 0.00 0.00 0.00 38 1018.4
20260905110639 71 45 0.0 1.0 0.00 0.00 0.00 38 1018.4
20260905110137 71 45 0.0 1.0 0.00 0.00 0.00 37 1018.3
20260905105634 71 0 0.0 0.0 0.00 0.00 0.00 37 1018.2
20260905105131 72 90 0.0 1.0 0.00 0.00 0.00 37 1018.2
20260905104629 72 22 1.0 1.0 0.00 0.00 0.00 36 1018.1
20260905104128 72 135 0.0 0.0 0.00 0.00 0.00 36 1018.0
20260905103625 72 315 0.0 1.0 0.00 0.00 0.00 36 1017.9
20260905103123 72 0 0.0 1.0 0.00 0.00 0.00 36 1017.9
20260905102620 72 45 1.0 1.0 0.00 0.00 0.00 35 1017.8
20260905102118 72 45 0.0 1.0 0.00 0.00 0.00 35 1017.8
20260905101616 72 0 0.0 2.0 0.00 0.00 0.00 35 1017.8
20260905101114 72 0 0.0 1.0 0.00 0.00 0.00 34 1017.7
20260905100611 73 45 0.0 0.0 0.00 0.00 0.00 34 1017.6
20260905100108 73 90 2.0 2.0 0.00 0.00 0.00 33 1017.6
20260905095606 74 270 0.0 0.0 0.00 0.00 0.00 33 1017.4
20260905095104 74 315 1.0 2.0 0.00 0.00 0.00 33 1017.5
20260905094603 74 270 1.0 2.0 0.00 0.00 0.00 32 1017.3
20260905094100 75 315 2.0 2.0 0.00 0.00 0.00 32 1017.2
20260905093557 75 135 0.0 1.0 0.00 0.00 0.00 32 1017.2
20260905093055 76 135 0.0 0.0 0.00 0.00 0.00 31 1017.0
20260905092554 76 180 0.0 0.0 0.00 0.00 0.00 31 1017.0
20260905092051 76 135 0.0 0.0 0.00 0.00 0.00 31 1016.9
20260905091548 76 135 0.0 1.0 0.00 0.00 0.00 31 1016.9
20260905091047 77 180 1.0 1.0 0.00 0.00 0.00 30 1016.9
20260905090545 77 90 1.0 1.0 0.00 0.00 0.00 30 1016.7
20260905090041 78 90 0.0 1.0 0.00 0.00 0.00 29 1016.7
20260905085539 78 90 1.0 1.0 0.00 0.00 0.00 29 1016.7
20260905085037 78 45 0.0 1.0 0.00 0.00 0.00 28 1016.6
20260905084535 79 90 0.0 1.0 0.00 0.00 0.00 28 1016.4
20260905084032 79 135 1.0 1.0 0.00 0.00 0.00 28 1016.5
20260905083530 80 90 1.0 1.0 0.00 0.00 0.00 27 1016.3
20260905083028 80 90 1.0 2.0 0.00 0.00 0.00 27 1016.2
20260905082525 81 90 0.0 2.0 0.00 0.00 0.00 26 1016.1
20260905082023 81 90 0.0 2.0 0.00 0.00 0.00 26 1016.1
20260905081520 82 90 2.0 2.0 0.00 0.00 0.00 25 1016.2
20260905081021 82 90 1.0 3.0 0.00 0.00 0.00 25 1016.0
20260905080516 83 78 2.0 3.0 0.00 0.00 0.00 24 1016.0
20260905080014 83 22 1.0 3.0 0.00 0.00 0.00 24 1016.1
20260905075512 84 45 2.0 3.0 0.00 0.00 0.00 23 1016.2
20260905075011 85 78 3.0 4.0 0.00 0.00 0.00 23 1016.2
20260905074511 85 90 1.0 3.0 0.00 0.00 0.00 23 1016.1
20260905074008 85 90 1.0 3.0 0.00 0.00 0.00 22 1016.1
20260905073506 86 67 3.0 3.0 0.00 0.00 0.00 22 1016.0
20260905073002 86 67 3.0 4.0 0.00 0.00 0.00 22 1016.0
20260905072459 87 45 3.0 5.0 0.00 0.00 0.00 21 1016.0
20260905071957 87 45 4.0 7.0 0.00 0.00 0.00 21 1015.9
20260905070954 88 90 3.0 6.0 0.00 0.00 0.00 20 1015.8
20260905070450 88 90 8.0 9.0 0.00 0.00 0.00 20 1015.8
20260905065949 88 90 4.0 5.0 0.00 0.00 0.00 20 1015.7
20260905064942 88 45 4.0 6.0 0.00 0.00 0.00 20 1015.7
20260905064438 88 22 4.0 9.0 0.00 0.00 0.00 20 1015.7
20260905063936 88 0 8.0 8.0 0.00 0.00 0.00 19 1015.7
20260905063434 89 45 4.0 7.0 0.00 0.00 0.00 20 1015.6
20260905062932 89 135 5.0 6.0 0.00 0.00 0.00 20 1015.5
20260905062430 89 90 3.0 9.0 0.00 0.00 0.00 20 1015.5
20260905061926 89 45 4.0 6.0 0.00 0.00 0.00 20 1015.6
20260905060919 89 22 6.0 6.0 0.00 0.00 0.00 19 1015.5
20260905060418 89 90 3.0 7.0 0.00 0.00 0.00 19 1015.5
20260905055915 89 157 1.0 6.0 0.00 0.00 0.00 19 1015.4
20260905055413 89 90 6.0 8.0 0.00 0.00 0.00 19 1015.5
20260905054909 89 78 6.0 8.0 0.00 0.00 0.00 19 1015.7
20260905054409 89 45 4.0 7.0 0.00 0.00 0.00 19 1015.7
20260905053906 89 45 4.0 15.0 0.00 0.00 0.00 19 1015.7
20260905053503 89 78 12.0 12.0 0.00 0.00 0.00 19 1015.6
20260905053141 89 45 4.0 12.0 0.00 0.00 0.00 19 1015.7
20260905052640 89 45 11.0 11.0 0.00 0.00 0.00 19 1015.8
20260905052138 89 67 6.0 7.0 0.00 0.00 0.00 19 1015.7
20260905051635 89 67 6.0 6.0 0.00 0.00 0.00 19 1015.7
20260905051132 89 11 4.0 10.0 0.00 0.00 0.00 19 1015.7
20260905050632 89 45 6.0 6.0 0.00 0.00 0.00 20 1015.9
20260905050126 89 135 2.0 14.0 0.00 0.00 0.00 20 1015.8
20260905045624 89 135 10.0 21.0 0.00 0.00 0.00 19 1015.9
20260905045524 89 90 21.0 21.0 0.00 0.00 0.00 19 1015.8
20260905045330 89 135 8.0 19.0 0.00 0.00 0.00 19 1015.8
20260905045228 89 90 19.0 19.0 0.00 0.00 0.00 19 1015.8
20260905044847 89 135 10.0 11.0 0.00 0.00 0.00 19 1015.8
20260905044744 89 135 0.0 3.0 0.00 0.00 0.00 21 1015.9